x

8419317 - Wells, Me (welm1) Weather Station

9:30 - Sat 23rd May 2015 All times are EDT. -4 hours from GMT.

  • Wind
    16mph, 23mph gusts
  • Sea Temp 44°f
  • Air Temp 47°f
  • Sea Pressure 1023.6mb
  • 8419317 - Wells, Me
  • 8419317 - Wells, Me

More Historic Weather Station data

Upgrade to MSW Pro to gain access to the past 30 days of data for over 8000 Wavebouys and Weather Stations around the globe.

Join Pro

Comparision Forecast

View Surf forecast
   
sam. 05/23 9:30 16 23 mph 1023.6mb 44f 47f
9:24 16 25 mph 1023.6mb 44f 47f
9:18 14 25 mph 1023.6mb 44f 48f
9:12 20 23 mph 1023.6mb 44f 47f
9:06 11 20 mph 1023.6mb 44f 48f
9:00 13 20 mph 1023.7mb 44f 47f
8:54 17 24 mph 1023.7mb 44f 47f
8:48 11 21 mph 1023.6mb 44f 47f
8:42 15 22 mph 1023.6mb 44f 46f
8:36 15 21 mph 1023.5mb 44f 46f
8:30 14 24 mph 1023.6mb 44f 46f
8:24 14 21 mph 1023.6mb 44f 46f
8:18 7 14 mph 1023.6mb 44f 47f
8:12 8 20 mph 1023.5mb 44f 46f
8:06 10 17 mph 1023.4mb 44f 46f
8:00 6 17 mph 1023.3mb 44f 46f
7:54 8 16 mph 1023.2mb 44f 46f
7:48 10 15 mph 1023.1mb 44f 45f
7:42 9 14 mph 1023.1mb 44f 45f
7:36 8 14 mph 1023.2mb 44f 45f
7:30 10 16 mph 1023.1mb 44f 44f
7:24 6 14 mph 1023.1mb 44f 44f
7:18 9 14 mph 1023.1mb 44f 44f
7:12 8 11 mph 1023mb 44f 44f
7:06 7 11 mph 1023mb 44f 44f
7:00 7 11 mph 1022.9mb 44f 44f
6:54 7 11 mph 1022.8mb 44f 43f
6:48 8 13 mph 1022.8mb 44f 43f
6:42 7 13 mph 1022.7mb 43f 43f
6:36 6 9 mph 1022.6mb 43f 43f
6:30 7 11 mph 1022.5mb 43f 42f
6:24 6 10 mph 1022.4mb 43f 42f
6:18 6 10 mph 1022.3mb 43f 42f
6:12 8 9 mph 1022.2mb 43f 42f
6:06 7 11 mph 1022.1mb 43f 42f
6:00 6 9 mph 1022mb 43f 42f
5:54 3 7 mph 1021.9mb 43f 41f
5:48 3 6 mph 1021.8mb 43f 41f
5:42 6 8 mph 1021.7mb 43f 40f
5:36 6 8 mph 1021.6mb 43f 40f
5:30 6 9 mph 1021.5mb 43f 40f
5:24 5 9 mph 1021.3mb 43f 41f
5:18 6 9 mph 1021.2mb 43f 40f
5:12 5 6 mph 1021.1mb 43f 40f
5:06 5 7 mph 1021.1mb 43f 40f
5:00 5 7 mph 1021mb 43f 40f
4:54 6 8 mph 1020.9mb 43f 40f
4:48 5 6 mph 1020.9mb 43f 40f
4:42 3 7 mph 1020.8mb 43f 40f
4:36 6 8 mph 1020.7mb 43f 41f
4:30 8 10 mph 1020.6mb 43f 41f
4:24 7 9 mph 1020.6mb 43f 41f
4:18 7 13 mph 1020.5mb 43f 42f
4:12 11 16 mph 1020.5mb 43f 42f
4:06 10 16 mph 1020.4mb 43f 42f
4:00 10 15 mph 1020.4mb 43f 42f
3:54 13 20 mph 1020.3mb 43f 43f
3:48 14 18 mph 1020.1mb 43f 43f
3:42 14 23 mph 1020.1mb 43f 44f
3:36 15 20 mph 1020mb 43f 44f
3:30 10 18 mph 1019.9mb 43f 44f
3:24 10 17 mph 1019.7mb 43f 45f
3:18 11 15 mph 1019.6mb 43f 45f
3:12 11 17 mph 1019.5mb 43f 45f
3:06 11 18 mph 1019.4mb 43f 46f
3:00 13 21 mph 1019.3mb 43f 46f
2:54 10 16 mph 1019.2mb 43f 47f
2:48 10 16 mph - 43f 47f
2:42 7 10 mph - 43f 47f
2:36 8 13 mph - 43f 47f
2:30 11 14 mph 1018.6mb 43f 48f
2:24 10 16 mph 1018.5mb 43f 48f
2:18 9 15 mph 1018.3mb 43f 49f
2:12 11 16 mph 1018.2mb 43f 49f
2:06 10 21 mph 1018.1mb 43f 49f
2:00 10 15 mph 1018mb 43f 49f
1:54 10 17 mph 1017.9mb 43f 49f
1:48 11 18 mph 1017.7mb 43f 49f
1:42 11 16 mph 1017.6mb 43f 49f
1:36 9 16 mph 1017.4mb 43f 49f
1:30 11 16 mph 1017.3mb 43f 50f
1:24 9 14 mph 1017.2mb 43f 49f
1:18 9 14 mph 1017.2mb 43f 50f
1:12 7 11 mph 1017.1mb 43f 49f
1:06 6 14 mph 1017.1mb 43f 49f
1:00 8 14 mph 1016.9mb 43f 50f
12:54 7 13 mph 1016.8mb 43f 49f
12:48 8 14 mph 1016.9mb 43f 49f
12:42 8 10 mph 1016.8mb 43f 49f
12:36 8 10 mph 1016.7mb 43f 49f
12:30 7 10 mph 1016.7mb 43f 49f
12:24 6 8 mph 1016.7mb 43f 49f
12:18 5 7 mph 1016.6mb 43f 48f
12:12 6 8 mph 1016.5mb 44f 49f
12:06 6 9 mph 1016.5mb 45f 49f
12:00 7 10 mph 1016.4mb 46f 50f
ven. 05/22 11:54 6 7 mph 1016.4mb 47f 50f
11:48 5 6 mph 1016.3mb 49f 51f
11:42 3 6 mph 1016.3mb 50f 51f
11:36 3 5 mph 1016.2mb 50f 51f
11:30 5 6 mph 1016.1mb 50f 51f
11:24 5 6 mph 1015.9mb 50f 51f
11:18 6 8 mph 1015.9mb 50f 51f
11:12 6 8 mph 1015.8mb 50f 51f
11:06 6 8 mph 1015.8mb 50f 51f
11:00 5 6 mph 1015.7mb 50f 51f
10:54 6 7 mph 1015.6mb 50f 51f
10:48 7 8 mph 1015.5mb 50f 51f
10:42 6 7 mph 1015.3mb 50f 52f
10:36 3 7 mph 1015.2mb 50f 53f
10:30 6 8 mph 1015.1mb 50f 53f
10:24 5 7 mph 1015.1mb 50f 53f
10:18 5 8 mph 1015mb 50f 53f
10:12 5 7 mph 1014.9mb 50f 53f
10:06 6 8 mph 1014.8mb 50f 53f
10:00 6 7 mph 1014.7mb 50f 53f
9:54 6 8 mph 1014.6mb 50f 53f
9:48 5 7 mph 1014.5mb 50f 54f
9:42 6
mph
1014.5mb 50f 54f
9:36 5 6 mph 1014.4mb 50f 55f
9:30 5 6 mph 1014.3mb 50f 55f
9:24 3 6 mph 1014.2mb 50f 56f
9:18 5 6 mph 1014.1mb 50f 56f
9:12 6 7 mph 1014.1mb 50f 56f
9:06 6 8 mph 1013.9mb 50f 56f
9:00 6 7 mph 1013.8mb 50f 57f
8:54 7 8 mph 1013.7mb 50f 56f
8:48 7 10 mph 1013.5mb 50f 57f
8:42 7 10 mph 1013.4mb 49f 58f
8:36 9 14 mph 1013.3mb 49f 58f
8:30 8 14 mph 1013.1mb 49f 58f
8:24 11 16 mph 1013mb 49f 59f
8:18 15 21 mph 1012.8mb 49f 59f
8:12 11 15 mph 1012.7mb 49f 59f
8:06 14 18 mph 1012.6mb 49f 59f
8:00 10 18 mph 1012.5mb 49f 60f
7:54 10 15 mph 1012.3mb 49f 60f
7:48 11 16 mph 1012.1mb 49f 61f
7:42 14 16 mph 1012mb 48f 61f
7:36 14 18 mph 1011.9mb 48f 61f
7:30 15 23 mph 1011.6mb 48f 61f
7:24 15 20 mph 1011.5mb 48f 62f
7:18 13 25 mph 1011.5mb 48f 62f
7:12 16 21 mph 1011.3mb 48f 62f
7:06 15 25 mph 1011.2mb 48f 62f
7:00 15 21 mph 1011mb 48f 63f
6:54 13 20 mph 1010.9mb 48f 63f
6:48 15 21 mph 1010.9mb 48f 63f
6:42 17 26 mph 1010.8mb 48f 63f
6:36 14 17 mph 1010.7mb 48f 64f
6:30 11 21 mph 1010.6mb 48f 64f
6:24 15 22 mph 1010.4mb 48f 64f
6:18 14 24 mph 1010.3mb 48f 64f
6:12 22 26 mph 1010.1mb 47f 64f
6:06 17 28 mph 1010.1mb 47f 65f
6:00 17 26 mph 1009.9mb 47f 65f
5:54 16 25 mph 1009.8mb 47f 65f
5:48 17 24 mph 1009.6mb 47f 65f
5:42 13 20 mph 1009.5mb 47f 66f
5:36 14 25 mph 1009.5mb 47f 66f
5:30 15 23 mph 1009.3mb 47f 66f
5:24 14 20 mph 1009.2mb 47f 67f
5:18 9 16 mph 1009.1mb 46f 67f
5:12 13 23 mph 1009mb 46f 66f
5:06 14 25 mph 1008.8mb 46f 66f
5:00 14 24 mph 1008.5mb 46f 67f
4:54 14 20 mph 1008.5mb 46f -
4:48 15 25 mph 1008.4mb 46f -
4:42 14 22 mph 1008.3mb 46f -
4:36 13 22 mph 1008.1mb 46f -
4:30 16 25 mph 1007.9mb 46f -
4:24 16 25 mph 1007.7mb 46f -
4:18 14 22 mph 1007.7mb 46f -
4:12 17 24 mph 1007.4mb 46f -
4:06 11 17 mph 1007.6mb 46f -
4:00 9 14 mph 1007.6mb 46f 57f
3:54 9 16 mph 1007.6mb 45f 55f
3:48 9 15 mph 1007.6mb 45f 55f
3:42 14 18 mph 1007.4mb 46f 56f
3:36 10 14 mph 1007.5mb 45f 55f
3:30 10 13 mph 1007.5mb 45f 55f
3:24 10 14 mph 1007.4mb 45f 55f
3:18 10 14 mph 1007.3mb 45f 55f
3:12 11 16 mph 1007.2mb 45f 55f
3:06 13 16 mph 1007.2mb 45f 55f
3:00 13 15 mph 1007.3mb 45f 55f
2:54 11 15 mph 1007.3mb 45f 55f
2:48 8 10 mph 1007.2mb 45f 55f
2:42 5 8 mph 1007.2mb 45f 53f
2:36 6 13 mph 1007.1mb 45f 53f
2:30 11 15 mph 1007.1mb 45f 53f
2:24 13 17 mph 1007.1mb 45f 54f
2:18 15 17 mph 1007mb 45f 53f
2:12 13 15 mph 1007mb 45f 53f
2:06 14 16 mph 1007mb 45f 53f
2:00 11 15 mph 1007.1mb 45f 53f
1:54 13 17 mph 1007mb 45f 53f
1:48 14 17 mph 1007.1mb 45f 54f
1:42 10 15 mph 1007.2mb 45f 53f
1:36 13 15 mph 1007.2mb 45f 53f
1:30 14 20 mph 1007.2mb 45f 53f
1:24 16 20 mph 1007.2mb 45f 53f
1:18 13 14 mph 1007.1mb 45f 53f
1:12 7 10 mph 1007.2mb 45f 53f
1:06 8 11 mph 1007.2mb 45f 53f
1:00 11 15 mph 1007.3mb 45f 54f
12:54 8 11 mph 1007.4mb 46f 53f
12:48 10 15 mph 1007.5mb 46f 53f
12:42 11 15 mph 1007.5mb 46f 54f
12:36 13 14 mph 1007.5mb 46f 54f
12:30 7 11 mph 1007.6mb 46f 54f
12:24 8 13 mph 1007.6mb 46f 55f
12:18 6 17 mph 1007.5mb 46f 53f
12:12 10 16 mph 1007.6mb 46f 54f
12:06 10 17 mph 1007.5mb 47f 54f
12:00 14 17 mph 1007.6mb 47f 54f
11:54 13 15 mph 1007.6mb 47f 54f
11:48 13 15 mph 1007.7mb 47f 54f
11:42 10 14 mph 1007.6mb 47f 54f
11:36 9 13 mph 1007.7mb 47f 53f
11:30 11 14 mph 1007.7mb 47f 53f
11:24 13 15 mph 1007.7mb 47f 53f
11:18 11 14 mph 1007.8mb 47f 53f
11:12 11 14 mph 1007.9mb 47f 53f
11:06 10 14 mph 1007.7mb 47f 54f
11:00 13 14 mph 1007.9mb 47f 53f
10:54 14 17 mph 1007.9mb 47f 52f
10:48 15 18 mph 1007.9mb 47f 52f
10:42 13 16 mph 1007.8mb 47f 53f
10:36 10 13 mph 1007.8mb 47f 54f
10:30 10 14 mph 1007.8mb 47f 54f
10:24 11 14 mph 1007.8mb 46f 54f
10:18 10 11 mph 1007.8mb 46f 57f
10:12 9 11 mph 1007.8mb 46f 56f
10:06 13 17 mph 1007.8mb 46f 55f
10:00 7 10 mph 1007.8mb 46f 60f
9:54 6 13 mph 1007.7mb 46f 62f
9:48 8 14 mph 1007.7mb 46f 64f
9:42 2 9 mph 1007.8mb 46f 63f
9:36 6 9 mph 1007.8mb 46f 63f
9:30 5 9 mph 1007.8mb 46f 63f
9:24 6 10 mph 1007.8mb 46f 63f
9:18 2 6 mph 1007.9mb 46f 63f
9:12  -  3 mph 1007.9mb 46f 61f
9:06 3 6 mph 1007.9mb 46f 61f
9:00 2 3 mph 1007.9mb 46f 60f
8:54 5 8 mph 1007.9mb 46f 61f
8:48 3 6 mph 1008mb 46f 59f
8:42 2 6 mph 1008.1mb 46f 59f
8:36 2 6 mph 1008mb 46f 61f
8:30 6 7 mph 1007.9mb 46f 60f
8:24 2 3 mph 1008mb 46f 58f
8:18 2 3 mph 1008.2mb 46f 57f
8:12 2 5 mph 1008.3mb 46f 56f
8:06 2 3 mph 1008.4mb 46f 55f
8:00 2 5 mph 1008.4mb 46f 55f
7:54 2 3 mph 1008.4mb 46f 55f
7:48 2 7 mph 1008.5mb 46f 55f
7:42 1 5 mph 1008.5mb 46f 55f
7:36 5 6 mph 1008.4mb 46f 55f
7:30 5 6 mph 1008.3mb 46f 54f
7:24 5 6 mph 1008.3mb 46f 53f
7:18 3 5 mph 1008.3mb 46f 53f
7:12 3 5 mph 1008.4mb 46f 53f
7:06 3 5 mph 1008.3mb 46f 52f
7:00 2 5 mph 1008.3mb 46f 52f
6:54 5 7 mph 1008.2mb 46f 52f
6:48 7 9 mph 1008.3mb 46f 51f
6:42 9
mph
1008.3mb 45f 51f
6:36 6 7 mph 1008.2mb 45f 53f
6:30 5 6 mph 1008.2mb 45f 52f
6:24 3 5 mph 1008.2mb 45f 53f
6:18 3
mph
1008.2mb 45f 53f
6:12 3 7 mph 1008.1mb 45f 52f
6:06 6 7 mph 1008mb 45f 52f
6:00 6 7 mph 1008mb 45f 53f
5:54 6 8 mph 1007.9mb 45f 53f
5:48 6 7 mph 1007.9mb 45f 53f
5:42 5 7 mph 1007.9mb 45f 53f
5:36 7 9 mph 1007.9mb 45f 53f
5:30 8 10 mph 1008mb 45f 53f
5:24 8
mph
1008mb 45f 53f
5:18 5 8 mph 1007.8mb 45f 53f
5:12 5 7 mph 1007.8mb 45f 54f
5:06 5 7 mph 1007.8mb 45f 55f
5:00 5 10 mph 1007.7mb 45f 55f
4:54 5 10 mph 1007.7mb 45f 55f
4:48 6 11 mph 1007.8mb 45f 55f
4:42 5 9 mph 1007.7mb 45f 54f
4:36 3 7 mph 1007.9mb 45f 53f
4:30 5 7 mph 1007.8mb 45f 52f
4:24 5 6 mph 1007.7mb 45f 52f
4:18 6
mph
1007.7mb 45f 51f
4:12 3 6 mph 1007.6mb 45f 51f
4:06 6 8 mph 1007.5mb 45f 52f
4:00 7 8 mph 1007.4mb 44f 53f
3:54 7 8 mph 1007.3mb 44f 53f
3:48 8 11 mph 1007.4mb 44f 53f
3:42 10 13 mph 1007.4mb 44f 52f
3:36 6 8 mph 1007.2mb 44f 55f
3:30 5 9 mph 1007.1mb 44f 55f
3:24 3 6 mph 1007.1mb 44f 54f
3:18 3 7 mph 1007.2mb 44f 54f
3:12 6 10 mph 1007.4mb 44f 53f
3:06 8 13 mph 1007.5mb 44f 52f
3:00 13 15 mph 1007.7mb 44f -
2:54 9 10 mph 1007.6mb 44f -
2:48 7 9 mph 1007.5mb 44f 56f
2:42 5 10 mph 1007.5mb 44f 56f
2:36 6 9 mph 1007.6mb 44f 56f
2:30 5 8 mph 1007.7mb 44f 56f
2:24 3 5 mph 1007.8mb 44f 55f
2:18 2 7 mph 1007.9mb 44f 54f
2:12 5 6 mph 1008mb 44f 53f
2:06 5 6 mph 1008mb 44f 53f
2:00  -  mph 1008.1mb 44f 52f
1:54  -  mph 1008.2mb 44f 52f
1:48 9 13 mph 1008.2mb 44f 51f
1:42 7 9 mph 1008.3mb 44f 53f
1:36 3 6 mph 1008.1mb 44f 54f
1:30  -  3 mph 1008.1mb 44f 52f
1:24 1 5 mph 1008.1mb 44f 51f
1:18 5 7 mph 1008.1mb 44f 50f
1:12 6 8 mph 1008.3mb 44f 51f
1:06 1 3 mph 1008.4mb 44f 52f
1:00 2 5 mph 1008.4mb 44f 51f
12:54 5 9 mph 1008.5mb 44f 51f
12:48 7 8 mph 1008.5mb 44f 52f
12:42 3 5 mph 1008.5mb 44f 53f
12:36 2
mph
1008.6mb 44f 53f
12:30  -  1 mph 1008.6mb 44f 52f
12:24  -  1 mph 1008.6mb 44f 51f
12:18  -  2 mph 1008.7mb 44f 51f
12:12 2 3 mph 1008.8mb 44f 51f
12:06 2 3 mph 1008.9mb 44f 51f
12:00 1 3 mph 1009mb 44f 53f
jeu. 05/21 11:54 3 5 mph 1009.1mb 44f 53f
11:48 3 5 mph 1009.2mb 44f 52f
11:42 5 6 mph 1009.4mb 44f 51f
11:36 6 7 mph 1009.4mb 45f 50f
11:30 2 3 mph 1009.5mb 45f 51f
11:24 2 3 mph 1009.6mb 45f 52f
11:18 3 5 mph 1009.5mb 46f 52f
11:12 3 6 mph 1009.6mb 47f 52f
11:06 5 6 mph 1009.8mb 47f 52f
11:00 1 3 mph 1009.8mb 48f 52f
10:54 3 6 mph 1009.8mb 48f 52f
10:48 7 8 mph 1009.9mb 49f 51f
10:42 5 6 mph 1010mb 49f 51f
10:36 3 5 mph 1010mb 49f 51f
10:30 5 9 mph 1010mb 49f 51f
10:24 6 9 mph 1010.1mb 49f 51f
10:18 6 7 mph 1010.1mb 49f 52f
10:12 8 10 mph 1010.1mb 49f 51f
10:06 10 11 mph 1010.2mb 49f 51f
10:00 7 9 mph 1010.2mb 49f 52f
9:54 8 9 mph 1010.2mb 49f 52f
9:48 7 10 mph 1010.2mb 49f 52f
9:42 6 8 mph 1010.2mb 49f 52f
9:36 3 6 mph 1010.2mb 49f 52f
9:30 5 6 mph 1010.2mb 49f 52f
9:24 5 9 mph 1010.1mb 49f 51f
9:18 8
mph
1010.1mb 49f 51f
9:12 5 6 mph 1010.2mb 49f 52f
9:06 6 9 mph 1010.1mb 49f 52f
9:00 7 8 mph 1010.1mb 49f 52f
8:54 8 11 mph 1010mb 49f 53f
8:48 11 14 mph 1010mb 49f 53f
8:42 13 14 mph 1009.9mb 49f 52f
8:30 10 13 mph 1010mb 49f 53f
8:12 7 9 mph 1009.9mb 49f 53f
8:00 7 10 mph 1009.8mb 49f 53f
7:54 9 14 mph 1009.8mb 49f 53f
7:48 11 16 mph 1009.8mb 48f 53f
7:42 13 15 mph 1009.8mb 48f 53f
7:36 11 13 mph 1009.8mb 48f 53f
7:30 9 13 mph 1009.8mb 48f 52f
7:18 8 9 mph 1009.8mb 48f 52f
7:12 7 9 mph 1009.8mb 48f 52f
7:06 7 9 mph 1009.7mb 48f 52f
7:00 7 10 mph 1009.8mb 47f 53f
6:54 7 9 mph 1009.8mb 47f 53f
6:48 8 10 mph 1009.8mb 47f 53f
6:42 8 11 mph 1009.9mb 47f 53f
6:36 9 11 mph 1009.9mb 47f 53f
6:30 9 11 mph 1009.9mb 47f 53f
6:24 9 10 mph 1009.9mb 47f 53f
6:18 8 10 mph 1010mb 47f 53f
6:12 8 13 mph 1010mb 47f 53f
6:06 10 13 mph 1010.2mb 47f 53f
6:00 10 14 mph 1010.3mb 46f 53f
5:54 13 16 mph 1010.3mb 46f 53f
5:48 13 16 mph 1010.3mb 46f 53f
5:42 14 17 mph 1010.4mb 46f 53f
5:36 14 16 mph 1010.4mb 46f 53f
5:30 14 17 mph 1010.5mb 46f 54f
5:24 13 16 mph 1010.5mb 46f 53f
5:18 11 16 mph 1010.5mb 46f 53f
5:12 14 17 mph 1010.6mb 46f 53f
5:06 14 16 mph 1010.6mb 45f 53f
5:00 14 17 mph 1010.6mb 45f 53f
4:54 14 17 mph 1010.7mb 45f 53f
4:48 14 18 mph 1010.8mb 45f 53f
4:42 15 17 mph 1010.7mb 45f 53f
4:36 14 17 mph 1010.7mb 44f 53f
4:30 14 20 mph 1010.8mb 44f 53f
4:24 16 18 mph 1010.8mb 44f 53f
4:18 16 20 mph 1010.8mb 44f 53f
4:12 14 18 mph 1010.9mb 44f 52f
4:06 15 18 mph 1010.9mb 44f 52f
4:00 14 17 mph 1011mb 44f 52f
3:54 15 17 mph 1011mb 44f 52f
3:48 14 18 mph 1010.9mb 43f 52f
3:42 16 20 mph 1011mb 43f 52f
3:36 16 18 mph 1011.1mb 43f 52f
3:30 14 17 mph 1011mb 43f 52f
3:24 14 18 mph 1011mb 43f 53f
3:18 15 17 mph 1011.1mb 43f 52f
3:12 15 18 mph 1011mb 43f 52f
3:06 16 18 mph 1011.1mb 43f 52f
3:00 16 20 mph 1011.1mb 43f 53f
2:54 16 20 mph 1011.2mb 43f 52f
2:48 17 22 mph 1011.2mb 43f 53f
2:42 17 22 mph 1011.2mb 43f 53f
2:36 18 22 mph 1011.3mb 43f 53f
2:30 16 20 mph 1011.3mb 43f 52f
2:24 15 21 mph 1011.4mb 43f 52f
2:18 18 22 mph 1011.5mb 43f 53f
2:12 20 22 mph 1011.5mb 42f 53f
2:06 18 22 mph 1011.6mb 42f 52f
2:00 18 22 mph 1011.6mb 42f 52f
1:54 18 22 mph 1011.7mb 42f 52f
1:48 20 23 mph 1011.7mb 42f 52f
1:42 18 22 mph 1011.7mb 42f 52f
1:36 20 23 mph 1011.8mb 42f 52f
1:30 20 23 mph 1011.7mb 42f 52f
1:24 18 22 mph 1011.8mb 42f 52f
1:18 20 23 mph 1011.8mb 42f 52f
1:12 17 22 mph 1011.8mb 42f 52f
1:06 18 22 mph 1011.9mb 42f 52f
1:00 18 22 mph 1011.9mb 42f 52f
12:54 17 22 mph 1011.9mb 42f 53f
12:48 18 22 mph 1011.9mb 42f 53f
12:42 20 22 mph 1012mb 42f 54f
12:36 17 22 mph 1012mb 42f 53f
12:30 20 22 mph 1012.1mb 42f 54f
12:24 18 22 mph 1012.2mb 42f 54f
12:18 18 22 mph 1012.2mb 42f 54f
12:12 18 22 mph 1012.2mb 42f 54f
12:06 20 22 mph 1012.4mb 42f 54f
12:00 18 21 mph 1012.2mb 42f 53f
11:54 17 23 mph 1012.3mb 42f 53f
11:48 20 23 mph 1012.3mb 42f 54f
11:42 18 22 mph 1012.4mb 42f 54f
11:36 18 22 mph 1012.6mb 43f 54f
11:30 17 21 mph 1012.7mb 43f 53f
11:24 17 20 mph 1012.6mb 43f 53f
11:18 18 21 mph 1012.6mb 43f 54f
11:12 18 21 mph 1012.8mb 42f 53f
11:06 17 20 mph 1012.8mb 42f 53f
11:00 17 21 mph 1012.8mb 42f 52f
10:54 16 20 mph 1012.7mb 42f 52f
10:48 15 18 mph 1012.7mb 42f 51f
10:42 13 15 mph 1012.8mb 42f 53f
10:36 13 16 mph 1013mb 42f 53f
10:30 14 17 mph 1013.2mb 42f 51f
10:24 14 15 mph 1013mb 42f 51f
10:18 13 14 mph 1013mb 42f 51f
10:12 11 14 mph 1013.1mb 42f 51f
10:06 10 11 mph 1013.2mb 42f 51f
10:00 10 11 mph 1013.1mb 42f 51f
9:54 9 13 mph 1013.1mb 42f 51f
9:48 9 10 mph 1013mb 42f 53f
9:42 8 10 mph 1013mb 42f 52f
9:36 8 10 mph 1012.9mb 42f 53f
9:30 10 11 mph 1013mb 42f 53f
9:24 5 6 mph 1013mb 42f 58f
9:18 6 7 mph 1013mb 42f 57f
9:12 3 7 mph 1013mb 42f 59f
9:06 6 7 mph 1013mb 42f 58f
9:00 6 8 mph 1013mb 42f 58f
8:54 5 7 mph 1012.9mb 42f 58f
8:48 2 5 mph 1013.1mb 42f 57f
8:42 2 6 mph 1013mb 42f 57f
8:36 2 6 mph 1012.9mb 42f 57f
8:30 3 7 mph 1012.9mb 42f 56f
8:24 3 6 mph 1013.1mb 42f 56f
8:18 2 6 mph 1013.1mb 42f 55f
8:12 1 3 mph 1013.1mb 42f 56f
8:06 3 6 mph 1013.2mb 42f 52f
8:00 7 9 mph 1013mb 42f 50f
7:54 6 9 mph 1012.8mb 42f 51f
7:48 7 9 mph 1012.7mb 42f 51f
7:42 5 6 mph 1012.6mb 42f 51f
7:36 5 13 mph 1012.5mb 42f 49f
7:30 10 13 mph 1012.6mb 42f 49f
7:24 2 5 mph 1012.5mb 42f 50f
7:18 5 9 mph 1012.3mb 42f 48f
7:12 8 9 mph 1012.6mb 42f 50f
7:06 1 7 mph 1012.5mb 42f 50f
7:00 5 7 mph 1012.5mb 42f 48f
6:54 3
mph
1012.6mb 42f 49f
6:48  -  1 mph 1012.7mb 42f 49f
6:42 1
mph
1012.6mb 42f 47f
6:36  -  3 mph 1012.5mb 42f 46f
6:30 2 3 mph 1012.6mb 42f 46f
6:24 2 5 mph 1012.8mb 42f 45f
6:18 3 5 mph 1012.8mb 42f 45f
6:12 5
mph
1012.7mb 42f 46f
6:06 2 3 mph 1012.6mb 41f 45f
6:00 2 3 mph 1012.6mb 41f 45f
5:54 3 5 mph 1012.4mb 41f 44f
5:48 1 2 mph 1012.4mb 41f 44f
5:42 2 5 mph 1012.2mb 41f 44f
5:36 3 6 mph 1012.2mb 41f 43f
5:30 6 7 mph 1012.2mb 41f 43f
5:24 2 3 mph 1012mb 41f 43f
5:18 2 3 mph 1011.8mb 41f 43f
5:12 2 6 mph 1011.8mb 41f 43f
5:06 3 6 mph 1011.8mb 41f 44f
5:00 5 6 mph 1011.7mb 41f 44f
4:54 5 8 mph 1011.6mb 41f 44f
4:48 5 6 mph 1011.5mb 41f 44f
4:42 3 6 mph 1011.4mb 41f 44f
4:36 2 6 mph 1011.1mb 41f 43f
4:30 2 7 mph 1011.1mb 41f 44f
4:24 5 7 mph 1011.2mb 41f 44f
4:18 5 7 mph - - -
4:06 1 2 mph - - 44f
4:00  -  3 mph 1011.2mb 40f 44f
3:54 2 6 mph 1011.2mb 40f 44f
3:48 2 3 mph 1011.3mb 40f 44f
3:42 1 2 mph 1011.2mb 40f 44f
3:36 1 3 mph 1011.2mb 40f 44f
3:30 2 5 mph 1011.2mb 40f 45f
3:24 2 6 mph 1011.3mb 40f 45f
3:18 3 6 mph 1011.3mb 40f 44f
3:12 5 7 mph 1011.3mb 40f 44f
3:06 6 8 mph 1011.3mb 40f 44f
3:00 5 7 mph 1011.3mb 40f 44f
2:54 3 6 mph 1011.3mb 41f 44f
2:48 3 5 mph 1011.3mb 41f 44f
2:42 3 7 mph 1011.3mb 41f 44f
2:36  -  mph 1011.3mb - -
2:30  -  mph 1011.4mb - -
2:24 3 7 mph 1011.3mb 41f 42f
2:18 6 7 mph 1011.2mb 41f 43f
2:12 5 6 mph 1011.1mb 41f 43f
2:06 3 5 mph 1011mb 41f 43f
2:00 3 5 mph 1010.9mb 41f 43f
1:54 3 5 mph 1010.9mb 41f 44f
1:48 3 5 mph 1010.9mb 40f 45f
1:42 2 6 mph 1010.9mb 40f 44f
1:36 5 6 mph 1011.1mb 40f 44f
1:30 2 3 mph 1010.9mb 40f 45f
1:24 2 5 mph 1010.8mb 40f 45f
1:18 2 6 mph 1010.8mb 40f 45f
1:12 5 7 mph 1010.7mb 40f 45f
1:06 6 7 mph 1010.9mb 40f 45f
1:00 6 7 mph 1011mb 40f 45f
12:54 6 8 mph 1011mb 40f 45f
12:48 7 9 mph 1010.9mb 40f 46f
12:42 6 8 mph 1011mb 40f 47f
12:36 7 9 mph 1011.1mb 40f 46f
12:30 8 9 mph 1011.3mb 40f 46f
12:24 6
mph
1011.1mb 40f 47f
12:18 2 3 mph 1011mb 40f 46f
12:12 2 6 mph 1011mb 40f 47f
12:06 5 6 mph 1010.9mb 40f 47f
12:00 5 6 mph 1010.8mb 40f 47f
mer. 05/20 11:54 3 5 mph 1010.8mb 40f 47f
11:48 1 3 mph - - -
11:42 2 5 mph 1010.7mb 40f 48f
11:36 2 6 mph 1010.6mb 40f 48f
11:30 5 7 mph 1010.5mb 40f 48f
11:24 5 6 mph 1010.5mb 40f 48f
11:18 5
mph
1010.6mb - -
11:12 5 6 mph 1010.5mb 40f 47f
11:06 5 6 mph 1010.5mb 40f 48f
11:00 5 6 mph 1010.4mb 40f 49f
10:54 3 6 mph 1010.5mb 40f 49f
10:48 3 6 mph 1010.5mb 40f 49f
10:42 5 7 mph 1010.4mb 40f 49f
10:36 5 7 mph 1010.4mb 41f 49f
10:30 6 8 mph 1010.4mb 41f 50f
10:24 6 9 mph 1010.4mb 42f 50f
10:18 7 9 mph - - -
10:12 6 7 mph 1010.4mb 44f 49f
10:06 6 9 mph 1010.3mb 45f 49f
10:00 5 7 mph 1010.2mb 47f 49f
9:54 6 7 mph 1010.2mb 49f 49f
9:48 6 7 mph 1010.1mb 49f 49f
9:42 5 6 mph 1010.2mb 50f 50f
9:36 2 3 mph 1010.2mb 50f 51f
9:30 2 5 mph 1010.4mb 50f 51f
9:24 2 6 mph 1010.2mb 49f 51f
9:18 3 6 mph 1010.2mb 49f 51f
9:12 3 6 mph 1010.2mb 49f 51f
9:06 3 7 mph 1010.1mb 49f 51f
9:00 5 7 mph 1010.1mb 49f 51f
8:54 5 8 mph 1010mb 49f 52f
8:48 3 6 mph 1009.9mb 49f 52f
8:42 3 7 mph 1009.9mb 49f 52f
8:36 5 8 mph 1009.8mb 49f 52f
8:30 5 8 mph 1009.6mb 49f 52f
8:24 5 10 mph 1009.5mb 49f 52f
8:18 5 7 mph 1009.3mb 49f 53f
8:12 3 7 mph 1009.3mb 49f 53f
8:06 6 8 mph 1009.4mb 49f 53f
8:00 5 9 mph 1009.4mb 49f 53f
7:54 6 11 mph 1009.2mb 49f 53f
7:48 9 15 mph 1009.1mb 48f 54f
7:42 10 17 mph 1009mb 48f 54f
7:36 11 14 mph 1009mb 48f 54f
7:30 7 11 mph 1009.2mb 48f 54f
7:24 8 13 mph 1009mb 48f 54f
7:18 5 13 mph 1008.9mb 48f 55f
7:12 8 18 mph 1008.8mb 48f 54f
7:06 13 20 mph 1008.4mb 48f 55f
7:00 17 24 mph 1008.3mb 48f 55f
6:54 11 22 mph 1008.7mb 47f 55f
6:48 15 23 mph 1008.4mb 47f 55f
6:42 15 24 mph 1008.2mb 47f 55f
6:36 17 22 mph 1008.1mb 47f 55f
6:30 16 29 mph 1008.2mb 47f 55f
6:24 16 28 mph 1008mb 47f 55f
6:18 17 26 mph 1007.8mb - -
6:12 20 32 mph 1007.7mb 46f 55f
6:06 20 26 mph 1007.5mb 46f 56f
6:00 16 28 mph 1007.8mb 46f 56f
5:54 15 30 mph 1007.8mb 46f 56f
5:48 16 25 mph 1007.8mb - -
5:42 21 29 mph 1007.7mb 45f 56f
5:36 14 25 mph 1007.5mb 45f 57f
5:30 10 20 mph 1007.5mb 45f 57f
5:24 14 24 mph 1007.5mb 45f 57f
5:18 15 29 mph 1007.2mb 45f 57f
5:12 22 29 mph 1007mb 45f 57f
5:06 16 28 mph 1007.1mb 44f 57f
5:00 20 28 mph 1007mb 45f 57f
4:54 11 20 mph 1007.2mb 45f 58f
4:48 14 23 mph - - -
4:42 21 24 mph 1006.7mb 46f 57f
4:36 14 25 mph 1006.8mb 46f 57f
4:30 17 24 mph 1006.6mb 45f 57f
4:24 20 26 mph 1006.4mb 45f 57f
4:18 23 36 mph - - -
4:12 20 31 mph 1006.4mb 45f 58f
4:06 23 29 mph 1006.3mb 45f 58f
4:00 21 33 mph 1006.1mb 45f 59f
3:54 18 29 mph 1005.9mb 44f 59f
3:48 14 23 mph 1005.8mb 44f 59f
3:42 14 23 mph 1005.9mb 44f 59f
3:36 14 23 mph 1005.8mb 44f 59f
3:30 14 21 mph 1005.8mb 44f 58f
3:24 13 21 mph 1005.8mb 44f 58f
3:18 14 22 mph 1005.8mb 44f 58f
3:12 18 24 mph 1005.8mb 44f 58f
3:06 16 29 mph 1005.7mb 44f 59f
3:00 20 26 mph 1005.5mb 44f 58f
2:54 18 26 mph 1005.5mb 43f 58f
2:48 21 32 mph 1005.5mb 43f 59f
2:42 25 34 mph 1005.3mb 43f 58f
2:36 18 30 mph 1005.2mb 43f 60f
2:30 20 30 mph 1005.3mb 43f 59f
2:24 21 31 mph 1005.5mb 43f 59f
2:18 16 30 mph - - -
2:12 20 31 mph 1005.5mb 43f 58f
2:06 23 31 mph 1005.5mb 43f 58f
2:00 24 31 mph 1005.6mb 43f 58f
1:54 20 31 mph 1005.7mb 43f 58f
1:48 18 32 mph 1005.6mb 43f 58f
1:42 23 33 mph 1005.3mb 43f 58f
1:36 17 38 mph 1005.5mb 43f 58f
1:30 14 24 mph 1005.6mb 43f 58f
1:24 11 25 mph 1005.7mb 43f 58f
1:18 15 26 mph 1005.7mb 43f 58f
1:12 17 26 mph 1005.8mb 43f 58f
1:06 17 29 mph 1005.7mb 43f 58f
1:00 15 26 mph 1005.6mb 43f 58f
12:54 15 31 mph 1005.6mb 43f 58f
12:48 15 26 mph 1005.6mb 43f 59f
12:42 17 32 mph 1005.6mb 43f 58f
12:36 20 31 mph 1005.6mb 43f 58f
12:30 22 32 mph 1005.5mb 43f 59f
12:24 18 30 mph 1005.4mb 43f 60f
12:18 16 26 mph 1005.3mb 43f 60f
12:12 14 28 mph 1005.3mb 43f 61f
12:06 18 29 mph 1005.2mb 43f 60f
12:00 16 30 mph 1005.1mb 43f 60f
11:54 16 26 mph 1005mb 43f 60f
11:48 15 25 mph 1004.9mb 43f 61f
11:42 14 23 mph 1004.8mb 43f 61f
11:36 16 25 mph 1004.9mb 43f 61f
11:30 15 25 mph 1004.8mb 43f 61f
11:24 14 24 mph 1004.8mb 44f 62f
11:18 18 24 mph 1004.6mb 44f 61f
11:12 15 24 mph 1004.8mb 44f 61f
11:06 18 29 mph 1004.7mb 44f 61f
11:00 15 24 mph 1004.7mb 44f 62f
10:54 14 21 mph 1004.8mb 44f 63f
10:48 11 23 mph 1004.7mb 44f 63f
10:42  -  mph - 45f -
10:36 15 22 mph 1004.7mb 45f -
10:30 16 23 mph 1004.8mb - -
10:24 14 22 mph 1004.9mb 46f 62f
10:18 15 23 mph 1004.8mb 46f 61f
10:12 16 22 mph 1004.8mb 46f 61f
10:06 18 22 mph 1004.7mb 48f 61f
10:00 15 21 mph 1004.7mb 48f 61f
9:54 14 20 mph 1004.7mb 48f 61f
9:48 11 22 mph - - -
9:42 14 22 mph 1004.6mb 48f 61f
9:36 15 22 mph 1004.5mb 48f 61f
9:30 13 22 mph 1004.6mb 48f 61f
9:24 13 22 mph 1004.4mb 48f 61f
9:18 17 24 mph 1004.5mb 48f 60f
9:12 16 23 mph 1004.5mb 48f 60f
9:06 14 20 mph 1004.5mb 48f 60f
9:00 17 24 mph 1004.5mb 48f 60f
8:54 15 24 mph 1004.5mb 48f 61f
8:48 10 17 mph 1004.6mb 48f 61f
8:42 11 22 mph 1004.5mb 48f 60f
8:36 14 21 mph 1004.5mb 48f 60f
8:30 9 18 mph 1004.5mb 48f 61f
8:24 13 23 mph 1004.5mb 48f 60f
8:18 13 22 mph 1004.6mb 48f 60f
8:12 14 20 mph 1004.5mb 48f 60f
8:06 11 17 mph 1004.6mb 48f 60f
8:00 11 20 mph 1004.7mb 48f 60f
7:54 10 17 mph 1004.8mb 48f 60f
7:48 11 21 mph 1004.6mb 48f 60f
7:42 10 15 mph 1004.6mb 48f 60f
7:36 11 15 mph 1004.6mb 48f 60f
7:30 7 13 mph 1004.7mb 48f 59f
7:24 9 14 mph 1004.7mb 48f 59f
7:18 10 15 mph 1004.8mb 48f 59f
7:12 7 10 mph 1004.7mb 47f 58f
7:06 7 13 mph 1004.7mb 47f 58f
7:00 7 13 mph 1004.7mb 47f 58f
6:54 7 10 mph 1004.7mb 47f 58f
6:48 7 13 mph 1004.8mb 47f 58f
6:36 7 11 mph 1004.7mb 47f 57f
6:30 8 14 mph 1004.7mb 47f 57f
6:24 6 11 mph 1004.7mb 47f 57f
6:18 7 11 mph 1004.7mb 47f 57f
6:12 3 8 mph 1004.6mb 47f 57f
6:06 5 9 mph 1004.5mb 47f 57f
6:00 6 9 mph 1004.5mb 47f 57f
5:54 7 10 mph 1004.5mb 47f 57f
5:48 5 8 mph 1004.4mb 47f 57f
5:42 7 11 mph 1004.5mb 47f 57f
5:36 6 10 mph 1004.5mb 47f 57f
5:30 7 11 mph 1004.5mb 47f 57f
5:24 6 10 mph 1004.5mb 47f 57f
5:18 8 13 mph 1004.5mb 47f 57f
5:12 6 11 mph 1004.2mb 47f 57f
5:06 9 13 mph 1004.2mb 47f 58f
5:00 9 14 mph 1004.1mb 47f 58f
4:54 9 14 mph 1003.8mb 47f 58f
4:48 10 14 mph 1003.9mb 47f 58f
4:42 9 14 mph 1003.8mb 47f 58f
4:36 10 15 mph 1003.9mb 47f 59f
4:30 7 10 mph 1004mb 47f 59f
4:24 7 9 mph 1004mb 47f 59f
4:18 7 13 mph 1003.9mb 47f 59f
4:12 8 14 mph 1003.7mb 47f 60f
4:06 9 17 mph 1003.6mb 47f 60f
4:00 10 15 mph 1003.5mb 47f 60f
3:54 9 17 mph 1003.5mb 47f 60f
3:48 9 18 mph 1003.4mb 47f -
3:42 10 18 mph 1003.4mb 47f 60f
3:36 11 20 mph 1003.4mb 47f 61f
3:30 13 20 mph 1003.3mb 46f 61f
3:24 11 20 mph 1003.3mb 46f 61f
3:18 11 17 mph 1003.2mb 46f 61f
3:12 10 17 mph 1003.2mb 46f 61f
3:06 13 17 mph 1003.3mb 46f 62f
3:00 8 15 mph 1003.5mb 46f -
2:54 10 14 mph 1003.6mb 46f 62f
2:48 9 15 mph 1003.6mb 46f 62f
2:42 9 17 mph 1003.7mb 46f 63f
2:36 10 20 mph 1003.6mb 46f -
2:30 14 20 mph 1003.7mb 46f -
2:24 11 16 mph 1003.5mb 46f 64f
2:18 11 18 mph 1003.3mb 46f 64f
2:12 13 21 mph 1003.4mb 45f 65f
2:06 9 16 mph 1003.6mb 45f 65f
2:00 7 14 mph 1003.4mb 45f 65f
1:54 10 17 mph 1003.3mb 45f 65f
1:48 7 11 mph 1003.4mb 45f 65f
1:36 7 13 mph 1003.6mb 45f 66f
1:30 8 14 mph 1003.7mb 45f 66f
1:24 8 13 mph 1003.6mb 45f 66f
1:18 7 13 mph 1003.5mb 45f 66f
1:12 9 14 mph 1003.6mb 45f 66f
1:06 8 13 mph 1003.8mb 45f 65f
1:00 9 16 mph - - -
12:54 10 15 mph 1003.7mb 45f 64f
12:48 9 15 mph 1003.8mb 45f 64f
12:42 9 13 mph 1003.8mb 45f 63f
12:36 8 10 mph 1003.9mb 45f 63f
12:30 6 7 mph 1004mb 45f 59f
12:24 1 2 mph 1004mb 45f 52f
12:18 2 3 mph - - -
12:12 2 3 mph 1004.1mb 46f 52f
12:06  -  1 mph 1004.1mb 46f 52f
12:00 1 3 mph 1004.1mb 46f 52f
mar. 05/19 11:54 3
mph
1004.2mb 46f 51f
11:48 2 3 mph 1004.2mb 46f 51f
11:42 2 3 mph 1004.2mb 46f 51f
11:36 1 2 mph 1004.1mb 46f 51f
11:30  -  2 mph 1004.2mb 46f 52f
11:24 1 3 mph 1004.2mb 46f 52f
11:18 3
mph
- - -
11:12 1 3 mph 1004.4mb 46f 51f
11:06 3
mph
1004.5mb 46f 51f
11:00 3
mph
1004.6mb 46f 52f
10:54 1 3 mph 1004.5mb 46f 52f
10:48 2 5 mph 1004.6mb 46f 53f
10:42 6
mph
1004.8mb 46f 52f
10:36 6
mph
1004.8mb 46f 52f
10:30 6 7 mph 1004.9mb 46f 52f
10:24 3
mph
1004.9mb 46f 52f
10:18 2 3 mph - - -
10:12 2 3 mph 1005.1mb 46f 52f
10:06 5 8 mph 1005.3mb 46f 53f
10:00 6
mph
1005.5mb 46f 53f
9:54 1 3 mph 1005.4mb 46f 53f
9:48 3 8 mph - - -
9:42 7 9 mph 1005.5mb 47f 53f
9:36 7
mph
1005.5mb 47f 53f
9:30 5 6 mph 1005.6mb 48f 53f
9:24 1 2 mph 1005.7mb 49f 53f
9:18 2 3 mph - - -
9:12 2 3 mph 1005.8mb 51f 54f
9:06 3
mph
1005.8mb 52f 54f
9:00 3 7 mph 1005.9mb 52f 54f
8:54 7
mph
1005.8mb 53f 53f
8:48 6 7 mph 1005.9mb - -
8:42 6 8 mph 1005.7mb 52f 53f
8:36 7 9 mph 1005.7mb 52f 53f
8:30 8 10 mph 1005.6mb 52f 54f
8:24 9
mph
1005.7mb 52f 54f
8:18 8 9 mph 1005.8mb 53f 53f
8:12 6 8 mph 1005.6mb 53f 53f
8:06 6 8 mph 1005.7mb 53f 52f
8:00 7 8 mph 1005.8mb 53f 52f
7:54 5 7 mph 1005.8mb 53f 53f
7:48 7 11 mph - - -
7:42 10 15 mph 1005.8mb 53f 54f
7:36 14 16 mph 1005.9mb 53f 54f
7:30 13 17 mph 1005.7mb 53f 54f
7:24 13 14 mph 1005.8mb 53f 55f
7:18 10 13 mph - - -
7:12 11 15 mph 1006mb 53f 54f
7:06 15 20 mph 1006mb 53f 55f
7:00 17 20 mph 1006mb 53f 55f
6:54 17 20 mph 1006mb 53f 56f
6:48 16 17 mph 1006mb 53f 56f
6:42 15 17 mph 1006.3mb 53f 57f
6:36 14 16 mph 1006.3mb 53f 57f
6:30 7 11 mph 1006.3mb 52f 56f
6:24 11 15 mph 1006.4mb 52f 56f
6:18 14 16 mph 1006.6mb 52f 56f
6:12 14 16 mph 1006.4mb 52f 57f
6:06 14 17 mph 1006.3mb 52f 56f
6:00 15 18 mph 1006.3mb 52f 56f
5:54 15 21 mph 1006.4mb 51f 56f
5:48 18 21 mph 1006.5mb - -
5:42 17 20 mph 1006.6mb 51f 56f
5:36 17 21 mph 1006.7mb 51f 55f
5:30 16 20 mph 1006.9mb 51f 56f
5:24 16 20 mph 1007.1mb 51f 56f
5:18 16 18 mph - - -
5:12 16 18 mph 1007.2mb 50f 55f
5:06 14 16 mph 1007.4mb 50f 55f
5:00 15 17 mph 1007.4mb 50f 55f
4:54 16 18 mph 1007.6mb 50f 56f
4:48 15 18 mph - - -
4:42 17 20 mph 1007.7mb 50f 54f
4:36 15 20 mph 1007.8mb 50f 54f
4:30 16 18 mph 1007.9mb 50f -
4:24 15 17 mph 1008mb 50f 54f
4:18 15 18 mph 1008.1mb 50f 54f
4:12 16 20 mph 1008.1mb 50f 54f
4:06 16 18 mph 1008.2mb 50f 54f
4:00 15 18 mph 1008.3mb 50f 54f
3:54 17 21 mph 1008.4mb 50f 54f
3:48 17 21 mph 1008.4mb 49f 54f
3:42 18 21 mph 1008.5mb 49f 54f
3:36 16 21 mph 1008.5mb 49f 54f
3:30 17 21 mph 1008.7mb 49f 54f
3:24 17 21 mph 1008.8mb 49f 54f
3:18 16 18 mph 1008.9mb 49f 54f
3:12 14 17 mph 1009mb 49f 54f
3:06 15 18 mph 1009mb 49f 54f
3:00 15 17 mph 1009.1mb 49f 54f
2:54 13 15 mph 1009.2mb 48f 54f
2:48 13 16 mph 1009.3mb 48f 53f
2:42 13 15 mph 1009.4mb 48f 53f
2:36 13 15 mph 1009.4mb 48f 53f
2:30 13 15 mph 1009.6mb 48f 53f
2:24 13 15 mph 1009.7mb 48f 53f
2:18 14 16 mph 1009.7mb 48f 53f